Hickory, NC

11:26 PM EDT on July 22, 2017 (GMT -0400)
Hickory Regional

Weather History for KHKY - October, 2011

Change the Weather History Date:

Sunday, October 16, 2011

  Actual Average Record
Temperature  
Mean Temperature 62 °F -  
Max Temperature 79 °F 71 °F 86 °F (1953)
Min Temperature 45 °F 49 °F 36 °F (1954)
Degree Days  
Heating Degree Days 3    
Growing Degree Days 12 (Base 50)    
Moisture  
Dew Point 41 °F    
Average Humidity 47    
Maximum Humidity 90    
Minimum Humidity 30    
Precipitation  
Precipitation 0.00 in - - ()
Sea Level Pressure  
Sea Level Pressure 30.01 in    
Wind  
Wind Speed 4 mph (SSW)    
Max Wind Speed 15 mph    
Max Gust Speed 18 mph    
Visibility 10 miles    
Events      
Averages and records for this station are not official NWS values.
T = Trace of Precipitation, MM = Missing Value Source: NWS Daily Summary

Daily Weather History Graph

Daily Weather History Graph

Search for Another Location

Airport or City:

Trip Planner

Search our weather history database for the weather conditions in past years. The results will help you decide how hot, cold, wet, or windy it might be!

Date:

Astronomy

Oct. 16, 2011 Rise Set
Actual Time 7:32 AM EDT 6:49 PM EDT
Civil Twilight 7:06 AM EDT 7:14 PM EDT
Nautical Twilight 6:37 AM EDT 7:44 PM EDT
Astronomical Twilight 6:07 AM EDT 8:13 PM EDT
Moon 9:42 PM EDT (10/16) 11:40 AM EDT (10/16)
Length of Visible Light 12h 07m
Length of Day
11h 16m
Waning Gibbous, 82% of the Moon is Illuminated
Oct 16
Waning Gibbous
Oct 19
Last Quarter
Oct 26
New
Nov 2
First Quarter
Nov 10
Full

Hourly Weather History & Observations

Time (EDT) Temp. Dew Point Humidity Pressure Visibility Wind Dir Wind Speed Gust Speed Precip Events Conditions
12:53 AM 55.9 °F 33.1 °F 42% 30.03 in 10.0 mi West 4.6 mph - N/A   Clear
1:53 AM 55.4 °F 33.8 °F 44% 30.08 in 10.0 mi Calm Calm - N/A   Clear
2:53 AM 52.0 °F 35.1 °F 53% 30.04 in 10.0 mi Calm Calm - N/A   Clear
3:53 AM 53.1 °F 33.1 °F 47% 30.03 in 10.0 mi Calm Calm - N/A   Clear
4:53 AM 48.9 °F 36.0 °F 61% 30.04 in 10.0 mi Calm Calm - N/A   Clear
5:53 AM 48.9 °F 36.0 °F 61% 30.05 in 10.0 mi Calm Calm - N/A   Clear
6:53 AM 46.9 °F 39.0 °F 74% 30.07 in 10.0 mi NNE 3.5 mph - N/A   Clear
7:53 AM 45.0 °F 42.1 °F 90% 30.09 in 10.0 mi Calm Calm - N/A   Clear
8:53 AM 50.0 °F 42.1 °F 74% 30.11 in 10.0 mi Calm Calm - N/A   Clear
9:53 AM 57.9 °F 39.9 °F 51% 30.11 in 10.0 mi West 4.6 mph - N/A   Clear
10:53 AM 64.0 °F 41.0 °F 43% 30.10 in 10.0 mi Calm Calm - N/A   Clear
11:53 AM 69.1 °F 42.1 °F 38% 30.09 in 10.0 mi Variable 3.5 mph - N/A   Clear
12:53 PM 73.0 °F 44.1 °F 35% 30.06 in 10.0 mi SSW 8.1 mph - N/A   Clear
1:53 PM 75.9 °F 43.0 °F 31% 30.01 in 10.0 mi South 11.5 mph 18.4 mph N/A   Clear
2:53 PM 78.1 °F 44.1 °F 30% 29.98 in 10.0 mi South 11.5 mph 18.4 mph N/A   Clear
3:53 PM 79.0 °F 45.0 °F 30% 29.95 in 10.0 mi SSW 15.0 mph - N/A   Clear
4:53 PM 78.1 °F 45.0 °F 31% 29.94 in 10.0 mi SSW 11.5 mph - N/A   Clear
5:53 PM 77.0 °F 46.9 °F 34% 29.93 in 10.0 mi SSW 8.1 mph - N/A   Clear
6:53 PM 73.0 °F 45.0 °F 37% 29.93 in 10.0 mi SSW 5.8 mph - N/A   Clear
7:53 PM 71.1 °F 44.1 °F 38% 29.93 in 10.0 mi SSW 8.1 mph - N/A   Clear
8:53 PM 69.1 °F 45.0 °F 42% 29.94 in 10.0 mi SSW 10.4 mph - N/A   Clear
9:53 PM 69.1 °F 44.1 °F 40% 29.93 in 10.0 mi SSW 11.5 mph - N/A   Clear
10:53 PM 70.0 °F 44.1 °F 39% 29.93 in 10.0 mi SW 8.1 mph - N/A   Clear
11:53 PM 63.0 °F 45.0 °F 52% 29.93 in 10.0 mi SW 5.8 mph - N/A   Clear